South Bend, IN

9:36 PM EDT on May 25, 2017 (GMT -0400)
South Bend Regional

Weather History for KSBN - October, 2011

Change the Weather History Date:

Monday, October 24, 2011

  Actual Average Record
Temperature  
Mean Temperature 52 °F 50 °F  
Max Temperature 61 °F 59 °F 79 °F (1963)
Min Temperature 42 °F 40 °F 23 °F (1981)
Degree Days  
Heating Degree Days 13 16  
Month to date heating degree days 239 289  
Since 1 July heating degree days 396 423  
Cooling Degree Days 0 0  
Month to date cooling degree days 11 8  
Year to date cooling degree days 969 772  
Growing Degree Days 4 (Base 50)    
Moisture  
Dew Point 42 °F    
Average Humidity 63    
Maximum Humidity 89    
Minimum Humidity 36    
Precipitation  
Precipitation 0.28 in 0.10 in 1.04 in (2008)
Month to date precipitation 4.22 2.58  
Year to date precipitation 40.05 31.38  
Snow  
Snow 0.00 in 0.00 in 1.40 in (1965)
Month to date snowfall 0.0 0.2  
Since 1 July snowfall 0.0 0.2  
Since 1 September snowfall 0.2  
Snow Depth 0.00 in    
Sea Level Pressure  
Sea Level Pressure 30.01 in    
Wind  
Wind Speed 8 mph (WNW)    
Max Wind Speed 22 mph    
Max Gust Speed 28 mph    
Visibility 10 miles    
Events Rain , Thunderstorm    
T = Trace of Precipitation, MM = Missing Value Source: NWS Daily Summary

Daily Weather History Graph

Daily Weather History Graph

Search for Another Location

Airport or City:

Trip Planner

Search our weather history database for the weather conditions in past years. The results will help you decide how hot, cold, wet, or windy it might be!

Date:

Astronomy

Oct. 24, 2011 Rise Set
Actual Time 8:07 AM EDT 6:50 PM EDT
Civil Twilight 7:39 AM EDT 7:19 PM EDT
Nautical Twilight 7:06 AM EDT 7:51 PM EDT
Astronomical Twilight 6:34 AM EDT 8:23 PM EDT
Moon 5:23 AM EDT (10/24) 5:16 PM EDT (10/24)
Length of Visible Light 11h 40m
Length of Day
10h 43m
Waning Crescent, 7% of the Moon is Illuminated
Oct 24
Waning Crescent
Oct 26
New
Nov 2
First Quarter
Nov 10
Full
Nov 18
Last Quarter

Hourly Weather History & Observations

Time (EDT) Temp. Windchill Dew Point Humidity Pressure Visibility Wind Dir Wind Speed Gust Speed Precip Events Conditions
12:54 AM 57.2 °F - 46.4 °F 67% 29.87 in 10.0 mi SSW 12.7 mph - N/A   Mostly Cloudy
1:37 AM 57.2 °F - 46.4 °F 67% 29.91 in 10.0 mi NNW 19.6 mph - N/A   Mostly Cloudy
1:52 AM 57.2 °F - 46.4 °F 67% 29.92 in 10.0 mi NW 18.4 mph 25.3 mph N/A   Mostly Cloudy
1:54 AM 57.0 °F - 46.9 °F 69% 29.93 in 10.0 mi NNW 17.3 mph 25.3 mph N/A   Mostly Cloudy
2:09 AM 55.4 °F - 48.2 °F 77% 29.93 in 10.0 mi NNW 19.6 mph 26.5 mph 0.00 in Rain , Thunderstorm Light Thunderstorms and Rain
2:44 AM 53.6 °F - 50.0 °F 88% 29.94 in 5.0 mi WNW 8.1 mph - 0.17 in Rain , Thunderstorm Heavy Thunderstorms and Rain
2:54 AM 53.1 °F - 48.9 °F 86% 29.93 in 6.0 mi WNW 8.1 mph - 0.20 in Rain , Thunderstorm Thunderstorms and Rain
3:13 AM 51.8 °F - 50.0 °F 94% 29.92 in 3.0 mi SW 3.5 mph - 0.04 in Rain Rain
3:54 AM 52.0 °F - 48.9 °F 89% 29.88 in 10.0 mi SSW 8.1 mph - 0.08 in   Mostly Cloudy
4:54 AM 51.1 °F - 48.9 °F 92% 29.89 in 10.0 mi WSW 5.8 mph - 0.00 in   Mostly Cloudy
5:35 AM 51.8 °F - 48.2 °F 88% 29.90 in 10.0 mi West 5.8 mph - N/A   Overcast
5:54 AM 52.0 °F - 48.9 °F 89% 29.91 in 10.0 mi WSW 6.9 mph - N/A   Overcast
6:14 AM 51.8 °F - 48.2 °F 88% 29.92 in 10.0 mi WNW 5.8 mph - N/A   Overcast
6:54 AM 53.1 °F - 48.9 °F 86% 29.93 in 10.0 mi NNW 8.1 mph - N/A   Overcast
7:17 AM 51.8 °F - 46.4 °F 82% 29.94 in 10.0 mi NNW 11.5 mph - N/A   Overcast
7:54 AM 50.0 °F - 45.0 °F 83% 29.96 in 10.0 mi NW 9.2 mph - N/A   Mostly Cloudy
8:54 AM 48.9 °F - 44.1 °F 83% 30.00 in 10.0 mi NNW 5.8 mph - N/A   Clear
9:54 AM 52.0 °F - 44.1 °F 74% 30.04 in 10.0 mi NW 6.9 mph - N/A   Partly Cloudy
10:54 AM 54.0 °F - 45.0 °F 72% 30.05 in 10.0 mi WNW 10.4 mph - N/A   Scattered Clouds
11:54 AM 57.0 °F - 39.9 °F 53% 30.06 in 10.0 mi WNW 10.4 mph - N/A   Clear
12:54 PM 59.0 °F - 39.0 °F 48% 30.08 in 10.0 mi WNW 15.0 mph - N/A   Clear
1:54 PM 60.8 °F - 35.6 °F 39% 30.07 in 10.0 mi NW 13.8 mph - N/A   Clear
2:54 PM 60.1 °F - 34.0 °F 38% 30.07 in 10.0 mi WNW 16.1 mph 27.6 mph N/A   Clear
3:54 PM 61.0 °F - 33.1 °F 35% 30.08 in 10.0 mi WNW 15.0 mph 26.5 mph N/A   Clear
4:54 PM 61.0 °F - 33.1 °F 35% 30.09 in 10.0 mi WNW 15.0 mph 23.0 mph N/A   Clear
5:54 PM 59.0 °F - 33.1 °F 38% 30.10 in 10.0 mi West 10.4 mph - N/A   Clear
6:54 PM 53.1 °F - 34.0 °F 48% 30.12 in 10.0 mi West 5.8 mph - N/A   Clear
7:54 PM 51.1 °F - 35.1 °F 54% 30.14 in 10.0 mi WSW 4.6 mph - N/A   Clear
8:54 PM 48.9 °F - 35.1 °F 59% 30.14 in 10.0 mi SSW 3.5 mph - N/A   Clear
9:54 PM 48.0 °F - 35.1 °F 61% 30.14 in 10.0 mi Calm Calm - N/A   Clear
10:54 PM 46.0 °F - 35.1 °F 66% 30.16 in 10.0 mi Calm Calm - N/A   Clear
11:54 PM 44.1 °F 42.5 °F 35.1 °F 71% 30.15 in 10.0 mi SSW 3.5 mph - N/A   Clear